Flag for Brazil Weather past 2 weeks in Itabuna, Bahia, Brazil

Now
75 °F

Passing clouds.


Feels Like: 76 °F
Forecast: N/A
Wind: 2 mph from South

Location: Salvador Aeroporto

Current Time: Sep 18, 2014 at 7:30:27 PM

Latest Report: Sep 18, 2014 at 7:00 PM


Visibility: N/A

Pressure: 30.01 "Hg

Humidity: 78%

Dew point: 68 °F

Location of ItabunaLocation

Historic Weather in Itabuna — Graph

°F

Itabuna temperature yesterday

Maximum temperature yesterday: 82 °F (at 12:00 PM)
Minimum temperature yesterday: 72 °F (at 4:00 AM)
Average temperature yesterday: 77 °F

Past Weeks' High & Low Weather Summary

 TemperatureHumidityPressure
High82 °F (Sep 4, 10:00 AM)100% (Sep 7, 9:00 AM)30.18 "Hg (Sep 7, 9:00 AM)
Low37 °F (Sep 15, 8:00 AM)54% (Sep 6, 1:00 PM)29.89 "Hg (Sep 4, 2:00 AM)
Average76 °F76%30.06 "Hg
* Reported Sep 3 6:00 PM — Sep 18 6:00 PM, Itabuna, Weather by CustomWeather, © 2014

Note: Actual official high and low records may vary slightly from our data, if they occured in-between our weather recording intervals... More about our weather records

Advertising

Itabuna weather history for previous 24 hours

 ConditionsComfort  
Time TempWeatherWind HumidityBarometerVisibility
6:00 PM
Sep 18
75 °FPassing clouds.7 mph78%30.01 "HgN/A
5:00 PM75 °FScattered clouds.5 mph69%30.01 "HgN/A
4:00 PM77 °FBroken clouds.16 mph69%30.01 "HgN/A
3:00 PM81 °FScattered clouds.12 mph66%30.01 "HgN/A
2:00 PM82 °FScattered clouds.10 mph62%30.01 "HgN/A
1:00 PM82 °FScattered clouds.12 mph62%30.04 "HgN/A
12:00 PM82 °FScattered clouds.10 mph66%30.07 "HgN/A
11:00 AM81 °FScattered clouds.9 mph66%30.09 "HgN/A
10:00 AM81 °FScattered clouds.9 mph62%30.09 "HgN/A
9:00 AM81 °FScattered clouds.13 mph66%30.09 "HgN/A
8:00 AM79 °FPassing clouds.10 mph65%30.09 "HgN/A
7:00 AM77 °FScattered clouds.12 mph69%30.07 "HgN/A
6:00 AM75 °FPassing clouds.9 mph74%30.04 "HgN/A
5:00 AM75 °FClear.10 mph74%30.04 "Hg10 mi
4:00 AM75 °FPassing clouds.9 mph78%30.01 "HgN/A
3:00 AM75 °FPassing clouds.9 mph78%30.01 "HgN/A
2:00 AM75 °FPassing clouds.8 mph78%30.01 "HgN/A
1:00 AM75 °FPassing clouds.9 mph78%30.04 "HgN/A
12:00 AM75 °FPassing clouds.9 mph78%30.04 "HgN/A
11:00 PM
Sep 17
77 °FPassing clouds.12 mph74%30.07 "HgN/A
10:00 PM77 °FPassing clouds.9 mph74%30.07 "HgN/A
9:00 PM77 °FPassing clouds.12 mph74%30.07 "HgN/A
8:00 PM77 °FPassing clouds.15 mph74%30.04 "HgN/A
7:00 PM77 °FPassing clouds.14 mph74%30.04 "HgN/A
Weather by CustomWeather, © 2014

See weather overviewHow to use our weather pages